Regional Weather Roundup
Issued by NWS

Home | Current Version | Previous Version | Graphics & Text | Print | Product List | Glossary On
Versions: 1 2 3 4 5 6 7 8 9 10 11 12 13 14 15 16 17 18 19 20 21 22 23 24 25 26 27 28 29 30 31 32 33 34 35 36 37 38 39 40 41 42 43 44 45 46 47 48 49 50
000
ASUS45 KTFX 010019
RWRMT
MONTANA HOURLY WEATHER ROUNDUP
NATIONAL WEATHER SERVICE GREAT FALLS MT
619 PM MDT SUN AUG 31 2014

NOTE: "FAIR" INDICATES FEW OR NO CLOUDS BELOW 12000 FEET WITH NO
SIGNIFICANT WEATHER AND/OR OBSTRUCTIONS TO VISIBILITY.

* THESE STATIONS ARE NOT UNDER NWS QUALITY CONTROL. THEY DO NOT
   REPORT WEATHER SUCH AS PRECIPITATION OR FOG.

MTZ001>007-043-010100-
WEST OF THE DIVIDE
CITY           SKY/WX    TMP DP  RH WIND       PRES   REMARKS
KALISPELL      LGT RAIN  57  45  64 N6        29.94R
MISSOULA       MOCLDY    64  41  43 NW14      29.96S
BUTTE          PTCLDY    63  36  37 NW16G23   29.98S
MULLAN PASS    CLOUDY    45  41  86 VRB5      30.05R
* LINCOLN      N/A       59  44  58 SW6G21     N/A
* LOOKOUT PASS N/A       53  43  69 SE8G17     N/A
* POLSON       N/A       57  48  72 S3G8       N/A
* RONAN APT    CLOUDY    61  48  62 N/A        N/A
* SEELEY LAKE  N/A       59  41  51 W7G14      N/A
* THOMP F APT  MOCLDY    53  46  77 NW3        N/A
$$

MTZ008-052>055-010100-
SOUTHWEST MONTANA
CITY           SKY/WX    TMP DP  RH WIND       PRES   REMARKS
DILLON         PTCLDY    66  36  33 SW5       29.95F
W YELLOWSTONE  PTCLDY    50  46  86 SW14G20   30.05R
* THREE FORKS  MOCLDY    64  64 100 N/A        N/A
* BOULDER HILL N/A       61  31  32 S2G16      N/A
* MONIDA PASS  N/A       55  42  62 S11G17     N/A
* RAYNOLDS PAS N/A       54  48  80 S3G17      N/A
* WHITEHALL    N/A       71  41  34 W10G19     N/A
* WISE RIVER   N/A       63  33  33 NW12G22    N/A
$$

MTZ009>010-012-014-046-048-049-054-010100-
EAST SLOPES AND CENTRAL MONTANA
CITY           SKY/WX    TMP DP  RH WIND       PRES   REMARKS
GREAT FALLS    CLOUDY    64  37  37 W17G26    29.87R
HELENA         PTCLDY    66  37  34 W9G18     29.93S
* CONRAD       PTCLDY    64  43  47 SW14G22    N/A
* EAST GLACIER N/A       53  41  64 NW14G20    N/A
* MONARCH      N/A       53  40  62 NW2        N/A
* PENDROY      N/A       60  38  44 NW19G26    N/A
* ROGERS PASS  N/A       55  36  49 SE5G14     N/A
* SAINT MARY   N/A       51  47  86 S7G16      N/A
* SWEET GRASS  N/A       65  34  32 N3G9       N/A
* WHITE SULPH  N/A       63  39  41 NW15G24    N/A
$$

MTZ011-013-016-021-035-040-045-047-050-051-010100-
NORTH CENTRAL MONTANA
CITY           SKY/WX    TMP DP  RH WIND       PRES   REMARKS
HAVRE          FAIR      73  37  27 NW15G24   29.77R
LEWISTOWN      PTCLDY    63  39  41 W16G25    29.89R
* CHINOOK      CLEAR     73  37  27 W16G21    29.76R
* FORT BENTON  PTCLDY    72  36  27 W12G17    29.83R
* CHESTER      N/A       69  32  25 NW11G19    N/A
* DENTON       N/A       68  38  33 SW24G30    N/A
* GEYSER       N/A       54  48  80 SW17       N/A
* JUDITH GAP   N/A       58  43  58 N12G17     N/A
* LOMA         N/A      N/A N/A N/A N/A        N/A
$$

MTZ017>020-022>027-061-062-010100-
NORTHEAST MONTANA
CITY           SKY/WX    TMP DP  RH WIND       PRES   REMARKS
GLASGOW        PTCLDY    73  43  34 W12       29.73R
GLENDIVE       MOCLDY    70  45  41 NW15G20   29.78R
JORDAN         PTCLDY    73  43  34 W15       29.78R
SIDNEY         MOCLDY    68  50  53 NW8       29.75R
WOLF POINT     CLOUDY    75  39  27 W20G25    29.72S
* BEAVER HILL  N/A       67  54  63 SW6        N/A
* CIRCLE       N/A       72  44  37 W9G16      N/A
* LINDSAY DVD  N/A       70  42  36 NW17G24    N/A
* NAVAJO       N/A       66  50  56 SE9        N/A
* SACO         N/A       71  45  39 W13        N/A
$$

MTZ028>042-056>058-010100-
SOUTHCENTRAL AND SOUTHEAST MONTANA
CITY           SKY/WX    TMP DP  RH WIND       PRES   REMARKS
BAKER          CLOUDY    61  54  78 SE7       29.79F
BILLINGS       LGT RAIN  68  43  40 N8        29.87R
LIVINGSTON     MOCLDY    55  46  72 S8        29.96R
MILES CITY     CLEAR     73  37  27 NW17      29.78R
* LAUREL APT   MOCLDY    72  43  35 N/A        N/A
* ROUNDUP APT  PTCLDY    70  39  32 NW7        N/A
* ALZADA       N/A       65  48  54 W6         N/A
* HYSHAM       N/A       69  37  31 NE2        N/A
* LAME DEER    N/A       65  40  40 N6G14      N/A
* REED POINT   N/A       68  39  35 W12G24     N/A
* ROSCOE HILL  N/A       60  37  43 SE9        N/A
$$

REGIONAL REPORTS...DAKOTAS
CITY           SKY/WX    TMP DP  RH WIND       PRES   REMARKS
WILLISTON      CLOUDY    63  55  75 NE8       29.72S
BEACH          N/A       63  48  58 W8        29.77R
CROSBY         PTCLDY    57  57 100 S7        29.73F
TIOGA          RAIN      55  55 100 NW17G25   29.80R
WATFORD CITY   LGT RAIN  59  55  87 NE7       29.73R
BISMARCK       TSTM      72  57  59 CALM      29.70R
GRAND FORKS    CLOUDY    70  61  73 W6        29.60R
FARGO          CLOUDY    72  63  73 W7        29.61F
BUFFALO SD     CLOUDY    57  52  83 NE17      29.74R
RAPID CITY     CLOUDY    59  55  87 W6        29.83R
$$

REGIONAL REPORTS...WYOMING/IDAHO/WASHINGTON
CITY           SKY/WX    TMP DP  RH WIND       PRES   REMARKS
GILLETTE       CLOUDY    55  52  90 W6        29.89R
SHERIDAN       MOCLDY    64  43  47 SW9       29.89R
CODY           MOCLDY   N/A N/A N/A N/A        N/A
YELLOWSTONE LA MOCLDY    48  41  77 VRB3      30.13R
SALMON         CLEAR     70  43  38 N5        29.90S
MULLAN PASS    CLOUDY    45  41  86 VRB5      30.05S
SPOKANE        MOCLDY    70  37  30 SW18G26   29.94F
$$

REGIONAL REPORTS...ALBERTA
CITY           SKY/WX    TMP DP  RH WIND       PRES   REMARKS
CALGARY        MOCLDY    63  37  38 E13       29.81R
LETHBRIDGE     MOCLDY    66  41  40 E6        29.80F
MEDICINE HAT   MOCLDY    63  50  63 VRB3      29.80R
EDMONTON       PTCLDY    64  36  35 NW12G18   29.75R
WATERTON GATE  N/A       57  41  55 SW17G24    N/A
CARDSTON       N/A       63  39  41 W7         N/A
$$

REGIONAL REPORTS...SASKATCHEWAN
CITY           SKY/WX    TMP DP  RH WIND       PRES   REMARKS
SWIFT CURRENT  LGT RAIN  63  48  58 W8        29.74R
REGINA         MOCLDY    68  50  53 NW5       29.70R
VAL MARIE      N/A       70  36  29 W12        N/A
ASSINIBOIA     N/A       64  43  47 SE6        N/A
CORONACH       N/A       64  50  61 N10G17     N/A

$$



USA.gov is the U.S. government's official web portal to all federal, state and local government web resources and services.